Novato, CA

7:02 PM PST on November 21, 2019 (GMT -0800)
Gnoss

Weather History for KDVO - September, 2019

Change the Weather History Date:

Monday, September 9, 2019

  Actual Average (KAPC) Record (KAPC)
Temperature  
Mean Temperature 66 °F -  
Max Temperature 80 °F 84 °F 99 °F (2015)
Min Temperature 51 °F 53 °F 43 °F (2002)
Growing Degree Days 16 (Base 50)    
Moisture  
Dew Point 53 °F    
Average Humidity 65    
Maximum Humidity 100    
Minimum Humidity 36    
Precipitation  
Precipitation 0.00 in - - ()
Sea Level Pressure  
Sea Level Pressure 29.91 in    
Wind  
Wind Speed 6 mph ()    
Max Wind Speed 24 mph    
Max Gust Speed 34 mph    
Visibility 9.7 miles    
Events      
Averages and records for this station are not official NWS values.
T = Trace of Precipitation, MM = Missing Value Source: Averaged Metar Reports

Daily Weather History Graph

Daily Weather History Graph

Search for Another Location

Airport or City:

Astronomy

Sep. 09, 2019 Rise Set
Actual Time 6:46 AM PDT 7:27 PM PDT
Civil Twilight 6:20 AM PDT 7:54 PM PDT
Nautical Twilight 5:48 AM PDT 8:25 PM PDT
Astronomical Twilight 5:16 AM PDT 8:58 PM PDT
Moon 5:23 PM PDT (9/9) 2:27 AM PDT (9/9)
Length of Visible Light 13h 34m
Length of Day
12h 41m
Waxing Gibbous, 83% of the Moon is Illuminated
Sep 9
Waxing Gibbous
Sep 13
Full
Sep 21
Last Quarter
Sep 28
New
Oct 5
First Quarter

Hourly Weather History & Observations

Time (PDT) Temp. Heat Index Dew Point Humidity Pressure Visibility Wind Dir Wind Speed Gust Speed Precip Events Conditions
12:15 AM 60.8 °F - 55.4 °F 82% 29.94 in 10.0 mi Calm Calm - N/A   Clear
12:35 AM 60.8 °F - 55.4 °F 82% 29.94 in 10.0 mi Calm Calm - N/A   Clear
12:55 AM 59.0 °F - 53.6 °F 82% 29.94 in 10.0 mi Calm Calm - N/A   Clear
1:15 AM 57.2 °F - 53.6 °F 88% 29.94 in 5.0 mi Calm Calm - N/A   Haze
1:35 AM 59.0 °F - 53.6 °F 82% 29.94 in 10.0 mi Calm Calm - N/A   Clear
1:55 AM 55.4 °F - 51.8 °F 88% 29.94 in 10.0 mi Calm Calm - N/A   Clear
2:15 AM 55.4 °F - 51.8 °F 88% 29.94 in 6.0 mi Calm Calm - N/A   Clear
2:35 AM 55.4 °F - 51.8 °F 88% 29.94 in 10.0 mi Calm Calm - N/A   Clear
2:55 AM 53.6 °F - 50.0 °F 88% 29.93 in 10.0 mi Calm Calm - N/A   Clear
3:15 AM 53.6 °F - 51.8 °F 94% 29.94 in 10.0 mi Calm Calm - N/A   Clear
3:35 AM 55.4 °F - 51.8 °F 88% 29.93 in 10.0 mi Calm Calm - N/A   Clear
3:55 AM 51.8 °F - 51.8 °F 100% 29.93 in 10.0 mi Calm Calm - N/A   Clear
4:15 AM 51.8 °F - 50.0 °F 94% 29.94 in 10.0 mi Calm Calm - N/A   Clear
4:35 AM 53.6 °F - 51.8 °F 94% 29.94 in 10.0 mi Calm Calm - N/A   Clear
4:55 AM 53.6 °F - 51.8 °F 94% 29.93 in 10.0 mi Calm Calm - N/A   Clear
5:15 AM 55.4 °F - 53.6 °F 94% 29.93 in 9.0 mi Calm Calm - N/A   Clear
5:35 AM 53.6 °F - 50.0 °F 88% 29.93 in 10.0 mi Calm Calm - N/A   Clear
5:55 AM 55.4 °F - 51.8 °F 88% 29.93 in 9.0 mi Calm Calm - N/A   Clear
6:15 AM 53.6 °F - 51.8 °F 94% 29.94 in 9.0 mi Calm Calm - N/A   Clear
6:35 AM 55.4 °F - 53.6 °F 94% 29.94 in 10.0 mi Calm Calm - N/A   Clear
6:55 AM 55.4 °F - 51.8 °F 88% 29.95 in 8.0 mi Calm Calm - N/A   Clear
7:15 AM 55.4 °F - 53.6 °F 94% 29.95 in 3.0 mi SE 3.5 mph - N/A   Clear
7:35 AM 57.2 °F - 53.6 °F 88% 29.95 in 10.0 mi ESE 4.6 mph - N/A   Clear
7:55 AM 59.0 °F - 55.4 °F 88% 29.95 in 10.0 mi ESE 8.1 mph - N/A   Clear
8:15 AM 60.8 °F - 55.4 °F 82% 29.96 in 10.0 mi ESE 4.6 mph - N/A   Clear
8:35 AM 64.4 °F - 55.4 °F 73% 29.96 in 10.0 mi Calm Calm - N/A   Clear
8:55 AM 68.0 °F - 53.6 °F 60% 29.96 in 7.0 mi NNW 9.2 mph 16.1 mph N/A   Clear
9:15 AM 69.8 °F - 53.6 °F 56% 29.97 in 10.0 mi NNW 11.5 mph 18.4 mph N/A   Clear
9:35 AM 71.6 °F - 51.8 °F 50% 29.96 in 10.0 mi NW 13.8 mph - N/A   Clear
9:55 AM 73.4 °F - 51.8 °F 47% 29.96 in 10.0 mi NNW 9.2 mph - N/A   Clear
10:15 AM 73.4 °F - 51.8 °F 47% 29.96 in 10.0 mi North 11.5 mph 23.0 mph N/A   Clear
10:35 AM 77.0 °F - 51.8 °F 41% 29.96 in 10.0 mi NW 12.7 mph - N/A   Clear
10:55 AM 78.8 °F - 51.8 °F 39% 29.95 in 10.0 mi NW 11.5 mph 17.3 mph N/A   Clear
11:15 AM 78.8 °F - 50.0 °F 36% 29.95 in 10.0 mi NW 12.7 mph 21.9 mph N/A   Clear
11:55 AM 80.6 °F - 51.8 °F 37% 29.94 in 10.0 mi WNW 9.2 mph 20.7 mph N/A   Clear
12:15 PM 80.6 °F - 51.8 °F 37% 29.93 in 10.0 mi West 9.2 mph 16.1 mph N/A   Clear
12:35 PM 80.6 °F 80.3 °F 53.6 °F 39% 29.93 in 10.0 mi WSW 13.8 mph - N/A   Clear
1:15 PM 78.8 °F - 55.4 °F 44% 29.92 in 10.0 mi WSW 18.4 mph - N/A   Clear
1:35 PM 78.8 °F - 55.4 °F 44% 29.91 in 10.0 mi West 13.8 mph 21.9 mph N/A   Clear
1:55 PM 78.8 °F - 53.6 °F 42% 29.91 in 10.0 mi West 16.1 mph 21.9 mph N/A   Clear
2:15 PM 78.8 °F - 55.4 °F 44% 29.89 in 10.0 mi West 24.2 mph 29.9 mph N/A   Clear
2:35 PM 77.0 °F - 57.2 °F 50% 29.89 in 10.0 mi West 20.7 mph 34.5 mph N/A   Clear
2:55 PM 78.8 °F - 55.4 °F 44% 29.89 in 10.0 mi West 17.3 mph 28.8 mph N/A   Clear
3:15 PM 78.8 °F - 55.4 °F 44% 29.88 in 10.0 mi West 18.4 mph 27.6 mph N/A   Clear
3:35 PM 78.8 °F - 55.4 °F 44% 29.88 in 10.0 mi West 21.9 mph 28.8 mph N/A   Clear
3:55 PM 77.0 °F - 55.4 °F 47% 29.87 in 10.0 mi West 24.2 mph 31.1 mph N/A   Clear
4:15 PM 77.0 °F - 55.4 °F 47% 29.87 in 10.0 mi West 18.4 mph 28.8 mph N/A   Clear
4:35 PM 77.0 °F - 53.6 °F 44% 29.86 in 10.0 mi West 20.7 mph 29.9 mph N/A   Clear
4:55 PM 75.2 °F - 48.2 °F 38% 29.87 in 10.0 mi West 20.7 mph 27.6 mph N/A   Clear
5:15 PM 73.4 °F - 51.8 °F 47% 29.86 in 10.0 mi West 20.7 mph 31.1 mph N/A   Clear
5:35 PM 71.6 °F - 53.6 °F 53% 29.86 in 10.0 mi West 23.0 mph 28.8 mph N/A   Clear
5:55 PM 69.8 °F - 53.6 °F 56% 29.85 in 10.0 mi West 23.0 mph 31.1 mph N/A   Clear
6:15 PM 69.8 °F - 53.6 °F 56% 29.84 in 10.0 mi West 23.0 mph 33.4 mph N/A   Clear
6:35 PM 68.0 °F - 51.8 °F 56% 29.83 in 10.0 mi West 21.9 mph 33.4 mph N/A   Clear
6:55 PM 68.0 °F - 51.8 °F 56% 29.83 in 10.0 mi West 20.7 mph 29.9 mph N/A   Clear
7:15 PM 66.2 °F - 50.0 °F 56% 29.85 in 10.0 mi Calm Calm 15.0 mph N/A   Clear
7:35 PM 66.2 °F - 51.8 °F 60% 29.85 in 10.0 mi WSW 11.5 mph 18.4 mph N/A   Clear
7:55 PM 66.2 °F - 51.8 °F 60% 29.84 in 10.0 mi WSW 11.5 mph 20.7 mph N/A   Clear
8:15 PM 66.2 °F - 50.0 °F 56% 29.85 in 10.0 mi West 12.7 mph 21.9 mph N/A   Clear
8:35 PM 68.0 °F - 50.0 °F 52% 29.85 in 10.0 mi West 16.1 mph 23.0 mph N/A   Clear
9:15 PM 66.2 °F - 51.8 °F 60% 29.85 in 10.0 mi West 15.0 mph 23.0 mph N/A   Clear
9:35 PM 64.4 °F - 51.8 °F 64% 29.86 in 10.0 mi West 12.7 mph 19.6 mph N/A   Clear
9:55 PM 64.4 °F - 51.8 °F 64% 29.86 in 10.0 mi WSW 13.8 mph - N/A   Clear
10:15 PM 64.4 °F - 51.8 °F 64% 29.87 in 10.0 mi West 12.7 mph 18.4 mph N/A   Clear
10:35 PM 64.4 °F - 51.8 °F 64% 29.86 in 10.0 mi WSW 12.7 mph - N/A   Clear
10:55 PM 64.4 °F - 50.0 °F 59% 29.86 in 10.0 mi WSW 13.8 mph - N/A   Clear
11:15 PM 64.4 °F - 50.0 °F 59% 29.86 in 10.0 mi SW 11.5 mph - N/A   Clear
11:35 PM 62.6 °F - 50.0 °F 63% 29.86 in 10.0 mi SW 8.1 mph - N/A   Clear
11:55 PM 62.6 °F - 51.8 °F 68% 29.86 in 10.0 mi SW 9.2 mph - N/A   Clear